Weather History for LJPZ - December, 2013

Change the Weather History Date:

Monday, December 2, 2013

  Actual Average (LIVT) Record (LIVT)
Temperature  
Mean Temperature 48 °F -  
Max Temperature 53 °F 51 °F 59 °F (2003)
Min Temperature 42 °F 45 °F 35 °F (2005)
Degree Days  
Heating Degree Days 16    
Moisture  
Dew Point 26 °F    
Average Humidity 40    
Maximum Humidity 66    
Minimum Humidity 30    
Precipitation  
Precipitation 0.00 in - - ()
Sea Level Pressure  
Sea Level Pressure 30.25 in    
Wind  
Wind Speed 9 mph ()    
Max Wind Speed 24 mph    
Max Gust Speed 39 mph    
Visibility 6.2 miles    
Events      
Averages and records for this station are not official NWS values.
T = Trace of Precipitation, MM = Missing Value Source: Averaged Metar Reports

Daily Weather History Graph

Daily Weather History Graph

Search for Another Location

Airport or City:

Trip Planner

Search our weather history database for the weather conditions in past years. The results will help you decide how hot, cold, wet, or windy it might be!

Date:

Astronomy

Dec. 02, 2013 Rise Set
Actual Time 7:26 AM CET 4:23 PM CET
Civil Twilight 6:52 AM CET 4:56 PM CET
Nautical Twilight 6:15 AM CET 5:34 PM CET
Astronomical Twilight 5:39 AM CET 6:09 PM CET
Moon 6:29 AM CET (12/2) 4:12 PM CET (12/2)
Length of Visible Light 10h 04m
Length of Day
8h 57m
Waning Crescent, 0% of the Moon is Illuminated
Dec 2
Waning Crescent
Dec 3
New
Dec 9
First Quarter
Dec 17
Full
Dec 25
Last Quarter

Hourly Weather History & Observations

Time (CET) Temp. Windchill Dew Point Humidity Pressure Visibility Wind Dir Wind Speed Gust Speed Precip Events Conditions
12:00 AM 50.0 °F - 26.6 °F 40% 30.09 in 6.2 mi NE 5.8 mph - N/A   Unknown
12:30 AM 51.8 °F - 24.8 °F 35% 30.06 in 6.2 mi NE 8.1 mph - N/A   Unknown
1:00 AM 51.8 °F - 24.8 °F 35% 30.06 in 6.2 mi NNE 5.8 mph - N/A   Unknown
1:30 AM 48.2 °F - 32.0 °F 54% 30.06 in 6.2 mi Variable 2.3 mph - N/A   Unknown
2:00 AM 48.2 °F - 33.8 °F 58% 30.09 in 6.2 mi Calm Calm - N/A   Unknown
2:30 AM 50.0 °F - 26.6 °F 40% 30.12 in 6.2 mi Variable 3.5 mph - N/A   Unknown
3:00 AM 46.4 °F - 35.6 °F 66% 30.12 in 6.2 mi Variable 2.3 mph - N/A   Unknown
3:30 AM 46.4 °F - 33.8 °F 62% 30.12 in 6.2 mi Variable 2.3 mph - N/A   Unknown
4:00 AM 44.6 °F - 33.8 °F 66% 30.15 in 6.2 mi Variable 2.3 mph - N/A   Unknown
4:30 AM 48.2 °F - 24.8 °F 40% 30.15 in 6.2 mi ENE 8.1 mph - N/A   Unknown
5:00 AM 48.2 °F - 23.0 °F 37% 30.15 in 6.2 mi NE 8.1 mph - N/A   Unknown
5:30 AM 48.2 °F - 23.0 °F 37% 30.18 in 6.2 mi NNE 5.8 mph - N/A   Unknown
6:00 AM 48.2 °F - 24.8 °F 40% 30.18 in - NNE 6.9 mph - N/A   Clear
6:30 AM 46.4 °F - 23.0 °F 40% 30.18 in - Variable 2.3 mph - N/A   Clear
7:00 AM 48.2 °F - 23.0 °F 37% 30.18 in - NE 9.2 mph - N/A   Clear
7:30 AM 46.4 °F 42.4 °F 24.8 °F 43% 30.21 in - NE 8.1 mph - N/A   Clear
8:00 AM 48.2 °F - 24.8 °F 40% 30.24 in - ENE 11.5 mph 23.0 mph N/A   Clear
8:30 AM 48.2 °F - 26.6 °F 43% 30.24 in - NE 10.4 mph - N/A   Clear
9:00 AM 50.0 °F - 28.4 °F 43% 30.24 in - ENE 15.0 mph - N/A   Clear
9:30 AM 51.8 °F - 28.4 °F 41% 30.27 in - ENE 15.0 mph 28.8 mph N/A   Clear
10:00 AM 51.8 °F - 28.4 °F 41% 30.27 in - East 16.1 mph - N/A   Clear
10:30 AM 53.6 °F - 28.4 °F 38% 30.27 in - East 12.7 mph 25.3 mph N/A   Clear
11:00 AM 53.6 °F - 28.4 °F 38% 30.27 in - NE 21.9 mph 39.1 mph N/A   Clear
11:30 AM 51.8 °F - 30.2 °F 44% 30.27 in - ENE 20.7 mph 34.5 mph N/A   Clear
12:00 PM 51.8 °F - 28.4 °F 41% 30.27 in - ENE 12.7 mph 25.3 mph N/A   Clear
12:30 PM 53.6 °F - 28.4 °F 38% 30.27 in - ENE 11.5 mph - N/A   Clear
1:00 PM 53.6 °F - 28.4 °F 38% 30.27 in - East 11.5 mph - N/A   Clear
1:30 PM 51.8 °F - 28.4 °F 41% 30.27 in - ENE 20.7 mph - N/A   Clear
2:00 PM 53.6 °F - 28.4 °F 38% 30.27 in - NE 13.8 mph 29.9 mph N/A   Clear
2:30 PM 53.6 °F - 24.8 °F 33% 30.27 in - NE 17.3 mph - N/A   Clear
3:00 PM 53.6 °F - 24.8 °F 33% 30.27 in - NE 11.5 mph 24.2 mph N/A   Clear
3:30 PM 51.8 °F - 24.8 °F 35% 30.27 in - ENE 16.1 mph 31.1 mph N/A   Clear
4:00 PM 51.8 °F - 23.0 °F 33% 30.27 in - ENE 24.2 mph 36.8 mph N/A   Clear
4:30 PM 51.8 °F - 21.2 °F 30% 30.27 in - ENE 20.7 mph 36.8 mph N/A   Clear
5:00 PM 50.0 °F - 21.2 °F 32% 30.33 in - ENE 23.0 mph 38.0 mph N/A   Clear
5:30 PM 50.0 °F - 23.0 °F 35% 30.33 in - ENE 21.9 mph 36.8 mph N/A   Clear
6:00 PM 50.0 °F - 21.2 °F 32% 30.33 in - ENE 19.6 mph - N/A   Clear
6:30 PM 50.0 °F - 19.4 °F 30% 30.33 in - ENE 12.7 mph 25.3 mph N/A   Clear
7:00 PM 50.0 °F - 21.2 °F 32% 30.36 in - ENE 15.0 mph 28.8 mph N/A   Clear
7:30 PM 50.0 °F - 21.2 °F 32% 30.36 in - ENE 17.3 mph 29.9 mph N/A   Clear
8:00 PM 48.2 °F - 23.0 °F 37% 30.36 in - ENE 12.7 mph 25.3 mph N/A   Clear
8:30 PM 48.2 °F - 24.8 °F 40% 30.36 in - ENE 8.1 mph 20.7 mph N/A   Clear
9:00 PM 48.2 °F - 24.8 °F 40% 30.36 in - NE 9.2 mph 21.9 mph N/A   Clear
9:30 PM 48.2 °F - 24.8 °F 40% 30.39 in - NNE 10.4 mph - N/A   Clear
10:00 PM 48.2 °F - 23.0 °F 37% 30.36 in - NE 10.4 mph - N/A   Clear
10:30 PM 48.2 °F - 24.8 °F 40% 30.36 in 6.2 mi ENE 11.5 mph - N/A   Unknown
11:00 PM 46.4 °F 45.2 °F 24.8 °F 43% 30.39 in 6.2 mi Variable 3.5 mph - N/A   Unknown
11:30 PM 42.8 °F - 24.8 °F 49% 30.39 in 6.2 mi South 2.3 mph - N/A   Unknown